SL-8 R/B

Satellite information

Favourite Embed

Satellite Type and Status

ROCKET BODYIN ORBIT

Key statistics

Satellite SL-8 R/B at a glance.

Uptime

15921

Days in orbit

Revolutions

≈ 13.8

Per day

Orbit

LEO

Low Earth Orbit

Inclination

82.9

Latest

Satellite identification and parameters

Extended collection of information and parameters for SL-8 R/B.

Object identification

Identified? True

Debris? False

Object name: SL-8 R/B

International designator: 1982-024B

Object number (NORAD): 13111

Object ID (CCSDS): 13111

Country: COMMONWEALTH OF INDEPENDENT STATES (CIS)

Current information (Y/N): Y

RCS size: LARGE

Orbital parameters

Period: 104.637 minutes

Inclination: 82.9284 deg

SMA: 7355.563 km

Apoapsis: 1006.966 km

Periapsis: 947.889 km

RAAN: 200.5195 deg

Eccentricy: 0.00401578

Argument of periapsis: 182.7025 deg

Mean anomaly: 241.0852 deg

Mean motion: 13.76191668 rev/day

Mean motion (dot): 0.00000095 rev/day2

B* drag term: 0.000081875581 1/REarth

Two-line elements (TLE)

Creation date: Oct. 25, 2025, 3:11 a.m.

Reference frame: TEME

Reference center: EARTH

Epoch: Oct. 24, 2025, 7:38 p.m. UTC

TLE line 0: 0 SL-8 R/B

TLE line 1: 1 13111U 82024B 25297.81851944 .00000095 00000-0 81876-4 0 9996

TLE line 2: 2 13111 82.9284 200.5195 0040158 182.7025 241.0852 13.76191668187902

Live tracking on map

Real-time ground track for satellite SL-8 R/B.

In-orbit conjunctions

A list of the most updated potential collisions computed for object SL-8 R/B.

Target Orbit TCA Probability of collision Miss distance Type
SL-8 R/B LEO 2024-10-01 04:54:36 0.0001607642 159.0 (m) ROCKET BODY

Associated space launch

Molniya communication satellites operating from a highly elliptical orbit

SL-8 R/B was lifted into orbit during the mission ‘Molniya-M | Molniya-3 29L’, on board a Molniya-M space rocket.

The launch took place on March 24, 1982, 12:12 a.m. from 41/1.

For more information about the launch, click the button.

Launch to space Molniya-M | Molniya-3 29L
Molniya-M | Molniya-3 29L

Agency: N/A

Status: Launch Successful

Launch date: March 24, 1982, 12:12 a.m. UTC

Rocket: Molniya-M

Launch pad: 41/1

Location: Plesetsk Cosmodrome, Russian Federation

...

Latest news about this satellite

There are no fresh news available about this satellite. Check back as we update our databases every day.


Newsletter sign-up

Weekly statistics, charts and insights to help you stay on top of the space industry.